Location: Dortmund
(51.5019°N, 7.6520°E)
Time: 19:03:14
(UTC+01:00)

ISS - Pass Details

Date: 06 January 2018
Orbit: 402 x 407 km, 51.6° (Epoch: 17 January)

Event Time Altitude Azimuth Distance (km) Brightness Sun altitude
Exits shadow 06:46:47 38° 276° (W) 634 -3.4 -15.7°
Maximum altitude 06:47:54 86° 360° (N) 413 -3.9 -15.5°
Drops below altitude 10° 06:51:12 10° 93° (E) 1,470 0.3 -15.0°
Sets 06:53:17 0° 94° (E) 2,331 1.7 -14.7°
